| time (UTC) | temp C | wind direction | speed KPH | gust KPH | rain 1hr cm | rain 24hr cm | rain mn cm | humidity % | barometer mb |
| 20260906140050 | 26 | 106 | 1.6 | 9.7 | 0.00 | 0.00 | 0.00 | 79 | 1016.4 |
| 20260906134551 | 25 | 305 | 1.6 | 6.4 | 0.00 | 0.00 | 0.00 | 81 | 1016.4 |
| 20260906133052 | 25 | 67 | 3.2 | 9.7 | 0.00 | 0.00 | 0.00 | 84 | 1016.5 |
| 20260906131550 | 24 | 352 | 0.0 | 9.7 | 0.00 | 0.00 | 0.00 | 85 | 1016.5 |
| 20260906130051 | 24 | 298 | 0.0 | 6.4 | 0.00 | 0.00 | 0.00 | 86 | 1016.3 |
| 20260906124546 | 23 | 67 | 1.6 | 11.3 | 0.00 | 0.00 | 0.00 | 87 | 1016.1 |
| 20260906123115 | 23 | 17 | 3.2 | 8.0 | 0.00 | 0.00 | 0.00 | 87 | 1015.9 |
| 20260906121548 | 23 | 73 | 1.6 | 9.7 | 0.00 | 0.00 | 0.00 | 87 | 1015.9 |
| 20260906120044 | 23 | 0 | 0.0 | 4.8 | 0.00 | 0.00 | 0.00 | 87 | 1015.8 |
| 20260906114554 | 23 | 71 | 0.0 | 1.6 | 0.00 | 0.00 | 0.00 | 86 | 1015.6 |
| 20260906113049 | 23 | 0 | 1.6 | 4.8 | 0.00 | 0.00 | 0.00 | 86 | 1015.6 |
| 20260906111548 | 24 | 86 | 1.6 | 6.4 | 0.00 | 0.00 | 0.00 | 85 | 1015.4 |
| 20260906110046 | 24 | 109 | 1.6 | 8.0 | 0.00 | 0.00 | 0.00 | 85 | 1015.3 |
| 20260906104541 | 24 | 49 | 1.6 | 11.3 | 0.00 | 0.00 | 0.00 | 84 | 1015.3 |
| 20260906103041 | 25 | 84 | 0.0 | 6.4 | 0.00 | 0.00 | 0.00 | 84 | 1015.1 |
| 20260906101547 | 25 | 0 | 0.0 | 9.7 | 0.00 | 0.00 | 0.00 | 84 | 1015.1 |
| 20260906100042 | 25 | 55 | 3.2 | 11.3 | 0.00 | 0.00 | 0.00 | 83 | 1015.1 |
| 20260906094541 | 25 | 0 | 0.0 | 6.4 | 0.00 | 0.00 | 0.00 | 83 | 1015.0 |
| 20260906093050 | 26 | 244 | 1.6 | 9.7 | 0.00 | 0.00 | 0.00 | 83 | 1014.9 |
| 20260906091601 | 26 | 0 | 1.6 | 11.3 | 0.00 | 0.00 | 0.00 | 83 | 1014.7 |
| 20260906090045 | 26 | 5 | 1.6 | 8.0 | 0.00 | 0.00 | 0.00 | 82 | 1014.5 |
| 20260906084541 | 26 | 0 | 0.0 | 4.8 | 0.00 | 0.00 | 0.00 | 80 | 1014.4 |
| 20260906083041 | 27 | 42 | 3.2 | 9.7 | 0.00 | 0.00 | 0.00 | 80 | 1014.4 |
| 20260906081549 | 27 | 350 | 1.6 | 12.9 | 0.00 | 0.00 | 0.00 | 81 | 1014.4 |
| 20260906080047 | 27 | 5 | 3.2 | 12.9 | 0.00 | 0.00 | 0.00 | 81 | 1014.3 |
| 20260906074548 | 27 | 61 | 1.6 | 9.7 | 0.00 | 0.00 | 0.00 | 79 | 1014.2 |
| 20260906073043 | 27 | 335 | 3.2 | 14.5 | 0.00 | 0.00 | 0.00 | 80 | 1014.2 |
| 20260906071548 | 27 | 120 | 4.8 | 11.3 | 0.00 | 0.00 | 0.00 | 80 | 1014.1 |
| 20260906070047 | 28 | 34 | 1.6 | 8.0 | 0.00 | 0.00 | 0.00 | 80 | 1014.2 |
| 20260906064542 | 28 | 76 | 1.6 | 9.7 | 0.00 | 0.00 | 0.00 | 80 | 1014.4 |
| 20260906063042 | 28 | 0 | 1.6 | 16.1 | 0.00 | 0.00 | 0.00 | 79 | 1014.5 |
| 20260906061551 | 29 | 98 | 1.6 | 16.1 | 0.00 | 0.00 | 0.00 | 78 | 1014.4 |
| 20260906060044 | 29 | 76 | 3.2 | 11.3 | 0.00 | 0.00 | 0.00 | 76 | 1014.5 |
| 20260906054544 | 30 | 77 | 1.6 | 14.5 | 0.00 | 0.00 | 0.00 | 75 | 1014.4 |
| 20260906053055 | 30 | 0 | 1.6 | 8.0 | 0.00 | 0.00 | 0.00 | 75 | 1014.4 |
| 20260906051541 | 30 | 42 | 1.6 | 6.4 | 0.00 | 0.00 | 0.00 | 75 | 1014.4 |
| 20260906050053 | 30 | 0 | 0.0 | 6.4 | 0.00 | 0.00 | 0.00 | 74 | 1014.1 |
| 20260906044542 | 30 | 57 | 0.0 | 4.8 | 0.00 | 0.00 | 0.00 | 73 | 1014.1 |
| 20260906043043 | 30 | 0 | 0.0 | 0.0 | 0.00 | 0.00 | 0.00 | 72 | 1014.1 |
| 20260906041545 | 30 | 0 | 0.0 | 3.2 | 0.00 | 0.00 | 0.00 | 71 | 1014.0 |
| 20260906040044 | 31 | 0 | 0.0 | 6.4 | 0.00 | 0.00 | 0.00 | 70 | 1013.8 |
| 20260906034542 | 31 | 0 | 0.0 | 4.8 | 0.00 | 0.00 | 0.00 | 69 | 1013.7 |
| 20260906033104 | 31 | 73 | 0.0 | 6.4 | 0.00 | 0.00 | 0.00 | 68 | 1013.6 |
| 20260906031543 | 31 | 0 | 0.0 | 6.4 | 0.00 | 0.00 | 0.00 | 66 | 1013.5 |
| 20260906030046 | 31 | 0 | 0.0 | 9.7 | 0.00 | 0.00 | 0.00 | 65 | 1013.4 |
| 20260906024551 | 31 | 63 | 0.0 | 4.8 | 0.00 | 0.00 | 0.00 | 64 | 1013.2 |
| 20260906023051 | 30 | 0 | 0.0 | 6.4 | 0.00 | 0.00 | 0.00 | 64 | 1013.1 |
| 20260906021548 | 30 | 0 | 0.0 | 0.0 | 0.00 | 0.00 | 0.00 | 63 | 1013.0 |
| 20260906020103 | 31 | 0 | 0.0 | 0.0 | 0.00 | 0.00 | 0.00 | 62 | 1012.7 |
| 20260906014543 | 31 | 0 | 0.0 | 0.0 | 0.00 | 0.00 | 0.00 | 62 | 1012.7 |
| 20260906013050 | 31 | 0 | 0.0 | 0.0 | 0.00 | 0.00 | 0.00 | 60 | 1012.5 |
| 20260906011557 | 32 | 0 | 0.0 | 0.0 | 0.00 | 0.00 | 0.00 | 58 | 1012.2 |
| 20260906010044 | 32 | 0 | 0.0 | 0.0 | 0.00 | 0.00 | 0.00 | 57 | 1012.1 |
| 20260906004544 | 33 | 0 | 0.0 | 0.0 | 0.00 | 0.00 | 0.00 | 56 | 1012.1 |
| 20260906003043 | 34 | 0 | 0.0 | 3.2 | 0.00 | 0.00 | 0.00 | 54 | 1011.9 |
| 20260906001543 | 34 | 0 | 0.0 | 1.6 | 0.00 | 0.00 | 0.00 | 53 | 1012.0 |
| 20260906000055 | 35 | 0 | 0.0 | 1.6 | 0.00 | 0.00 | 0.00 | 52 | 1011.9 |
| 20260905234545 | 35 | 0 | 0.0 | 6.4 | 0.00 | 0.00 | 0.00 | 51 | 1012.1 |
| 20260905233053 | 35 | 0 | 0.0 | 8.0 | 0.00 | 0.00 | 0.00 | 50 | 1012.3 |
| 20260905231549 | 35 | 0 | 0.0 | 6.4 | 0.00 | 0.00 | 0.00 | 50 | 1012.2 |
| 20260905230054 | 36 | 0 | 0.0 | 6.4 | 0.00 | 0.00 | 0.00 | 48 | 1012.1 |
| 20260905224549 | 36 | 0 | 0.0 | 6.4 | 0.00 | 0.00 | 0.00 | 48 | 1012.0 |
| 20260905223049 | 36 | 276 | 1.6 | 9.7 | 0.00 | 0.00 | 0.00 | 48 | 1012.0 |
| 20260905221544 | 36 | 5 | 1.6 | 6.4 | 0.00 | 0.00 | 0.00 | 48 | 1012.0 |
| 20260905220043 | 36 | 0 | 1.6 | 6.4 | 0.00 | 0.00 | 0.00 | 48 | 1012.0 |
| 20260905214541 | 36 | 0 | 0.0 | 4.8 | 0.00 | 0.00 | 0.00 | 50 | 1012.0 |
| 20260905213049 | 36 | 304 | 0.0 | 11.3 | 0.00 | 0.00 | 0.00 | 48 | 1012.0 |
| 20260905211552 | 36 | 277 | 1.6 | 6.4 | 0.00 | 0.00 | 0.00 | 47 | 1012.1 |
| 20260905210047 | 37 | 300 | 1.6 | 14.5 | 0.00 | 0.00 | 0.00 | 45 | 1012.1 |
| 20260905204545 | 37 | 0 | 0.0 | 9.7 | 0.00 | 0.00 | 0.00 | 43 | 1012.2 |
| 20260905203048 | 37 | 30 | 3.2 | 16.1 | 0.00 | 0.00 | 0.00 | 42 | 1012.4 |
| 20260905201544 | 37 | 0 | 0.0 | 8.0 | 0.00 | 0.00 | 0.00 | 42 | 1012.5 |
| 20260905200042 | 37 | 5 | 3.2 | 14.5 | 0.00 | 0.00 | 0.00 | 43 | 1012.5 |
| 20260905194557 | 37 | 71 | 0.0 | 6.4 | 0.00 | 0.00 | 0.00 | 45 | 1012.7 |
| 20260905193044 | 37 | 321 | 1.6 | 14.5 | 0.00 | 0.00 | 0.00 | 43 | 1013.2 |
| 20260905191547 | 37 | 0 | 0.0 | 11.3 | 0.00 | 0.00 | 0.00 | 44 | 1013.1 |
| 20260905190043 | 38 | 315 | 3.2 | 8.0 | 0.00 | 0.00 | 0.00 | 42 | 1013.2 |
| 20260905184611 | 38 | 290 | 0.0 | 9.7 | 0.00 | 0.00 | 0.00 | 43 | 1013.4 |
| 20260905183052 | 38 | 188 | 1.6 | 12.9 | 0.00 | 0.00 | 0.00 | 46 | 1013.5 |
| 20260905181552 | 37 | 323 | 1.6 | 11.3 | 0.00 | 0.00 | 0.00 | 48 | 1013.6 |
| 20260905180048 | 37 | 205 | 1.6 | 6.4 | 0.00 | 0.00 | 0.00 | 48 | 1013.7 |
| 20260905174549 | 37 | 209 | 0.0 | 8.0 | 0.00 | 0.00 | 0.00 | 48 | 1013.8 |
| 20260905173047 | 37 | 244 | 1.6 | 9.7 | 0.00 | 0.00 | 0.00 | 48 | 1014.0 |
| 20260905171544 | 36 | 277 | 1.6 | 9.7 | 0.00 | 0.00 | 0.00 | 52 | 1014.4 |
| 20260905170043 | 36 | 246 | 1.6 | 9.7 | 0.00 | 0.00 | 0.00 | 50 | 1014.4 |
| 20260905164551 | 36 | 259 | 1.6 | 9.7 | 0.00 | 0.00 | 0.00 | 50 | 1014.5 |
| 20260905163048 | 36 | 93 | 1.6 | 8.0 | 0.00 | 0.00 | 0.00 | 52 | 1014.7 |
| 20260905161547 | 35 | 0 | 0.0 | 4.8 | 0.00 | 0.00 | 0.00 | 54 | 1014.7 |
| 20260905160047 | 35 | 0 | 0.0 | 4.8 | 0.00 | 0.00 | 0.00 | 55 | 1014.7 |
| 20260905154610 | 34 | 0 | 0.0 | 4.8 | 0.00 | 0.00 | 0.00 | 58 | 1014.9 |
| 20260905153049 | 33 | 0 | 0.0 | 6.4 | 0.00 | 0.00 | 0.00 | 59 | 1015.0 |
| 20260905151545 | 33 | 0 | 1.6 | 6.4 | 0.00 | 0.00 | 0.00 | 59 | 1015.0 |
| 20260905150041 | 32 | 0 | 0.0 | 4.8 | 0.00 | 0.00 | 0.00 | 64 | 1014.9 |
| 20260905144548 | 31 | 0 | 0.0 | 3.2 | 0.00 | 0.00 | 0.00 | 69 | 1014.8 |
| 20260905143049 | 30 | 276 | 0.0 | 4.8 | 0.00 | 0.00 | 0.00 | 69 | 1014.7 |
| 20260905141543 | 30 | 0 | 0.0 | 1.6 | 0.00 | 0.00 | 0.00 | 70 | 1014.7 |